Regional Weather Roundup
Issued by NWS Newport/Morehead, NC

Current Version | Previous Version | Graphics & Text | Print | Product List | Glossary Off
Versions: 1 2 3 4 5 6 7 8 9 10 11 12 13 14 15 16 17 18 19 20 21 22 23 24 25 26 27 28 29 30 31 32 33 34 35 36 37 38 39 40 41 42 43 44 45 46 47 48 49 50

000
ASUS42 KMHX 261813
RWRMHX
WEATHER ROUNDUP FOR EASTERN NORTH CAROLINA
NATIONAL WEATHER SERVICE NEWPORT/MOREHEAD CITY NC
200 PM EDT SUN MAR 26 2017

NOTE: "FAIR" INDICATES FEW OR NO CLOUDS BELOW 12,000 FEET
WITH NO SIGNIFICANT WEATHER AND/OR OBSTRUCTIONS TO VISIBILITY

NCZ015>017-031-032-045>047-102-103-261900-
NORTH COAST

CITY           SKY/WX    TMP DP  RH WIND       PRES   REMARKS
EDENTON        CLOUDY    73  53  48 SE5       30.24F
ELIZABETH CITY PTSUNNY   73  52  47 CALM      30.24F
KITTY HAWK     NOT AVBL
MANTEO         MOSUNNY   73  53  49 S12       30.25F

$$

NCZ045>047-081-094-103-104-261900-
CENTRAL COAST

CITY           SKY/WX    TMP DP  RH WIND       PRES   REMARKS
FRISCO         MOSUNNY   74  54  49 S6        30.26F

$$

NCZ095-097-098-100-101-261900-
SOUTHERN COAST

CITY           SKY/WX    TMP DP  RH WIND       PRES   REMARKS
BEAUFORT       CLOUDY    74  57  55 SE9       30.24F
CEDAR ISLAND   NOT AVBL
JACKSONVILLE   MOSUNNY   76  53  44 S13       30.22F
PINEY ISLAND   CLOUDY   N/A N/A N/A S9G21     30.25F
WILMINGTON     CLOUDY    74  54  49 SE9G20    30.22F


$$

NCZ011>013-027>030-043-044-078>080-089-090>093-098-261900-
COASTAL PLAIN

CITY           SKY/WX    TMP DP  RH WIND       PRES   REMARKS
AHOSKIE          N/A     72  50  46 S5        30.22F
CLINTON        CLOUDY    73  54  51 S3        30.21F
ELIZABETHTOWN  CLOUDY    75  53  46 S9        30.20F
GOLDSBORO      LGT RAIN  75  50  41 S9        30.20F
GREENVILLE     CLOUDY    73  50  43 SW8       30.23F
HAVELOCK       NOT AVBL
KENANSVILLE    CLOUDY    73  52  46 S5        30.21F
KINSTON        PTSUNNY   75  48  38 S9        30.23F
NEW BERN       CLOUDY    76  51  41 SW13      30.24F
RICHLANDS      CLOUDY    75  52  44 S12       30.22F
ROCKY MOUNT    CLOUDY    72  53  51 S10       30.22F
WASHINGTON     CLOUDY    74  51  44 S10       30.22F
WHITEVILLE     MOSUNNY   75  51  42 S8        30.19F

$$

AMZ130-135-150-152-154-156-158-170-250-252-270-ANZ085-086-088-633-658-670-261900-
MARINE OBSERVATIONS

STATION/POSITION TIME  TEMP    WIND        PRES    WAVE   SWELL
                       AIR SEA DIR/SP/G            HT/PER HT/PER
                 (UTC) (F)     (DEG/KT/KT) (MB)    (FT/S) (FT/S)
CHESAPEAKE LIGHT NOT AVBL
64 E VA BEACH    1750   56 51  120/  2/  4 1025.2    2/ 8   2/ 8
DUCK             1748   59 48  120/  7/  9 1024.2
2 E DUCK         1800      51                N/A     1/11
OREGON INLET     1742   68 55  190/  7/ 10 1024.9
13E OREGON INLT  1748      53                N/A     2/ 9   2/ 9
HATTERAS CG      1748   71 58  160/  7/  9 1024.4
DIAMOND BUOY     1650   70 74  170/  8/ 10 1025.3    3/ 8   3/ 8
CAPE LOOKOUT     1800   66     100/  8/  8 1023.9
BEAUFORT LAB     1748   68 55  120/ 12/ 13 1023.4
30 SE NEW RVR IN 1708   67     100/  6/  8 1024.5
30 SE NEW RVR IN 1743      66                N/A     3/ 7
27 SE WRIGHTSVLE 1708   68 64  100/  2/  4 1023.5
5 SE WRIGHTSVLE  1708   64 59  150/  4/  8 1024.1
225 S CAPE HAT   1750   68 72   70/ 12/ 16 1024.2    5/ 9   3/ 9
41 SE CHARLESTON 1750   73 73  140/ 10/ 12 1022.3    4/ 7   3/ 7

$$




USA.gov is the U.S. government's official web portal to all federal, state and local government web resources and services.